This demonstration page uses our WeatherBlox Daily Observations layout. Learn more.

40.92501, -98.34201

Hourly Observations for September 30, 2020

Temp ( °F °C ) Dew Point ( °F °C ) Humidity (%) Winds ( mph kmh ) Pressure ( in mb ) Visibility ( mi km ) Precip ( " mm )
12:53 am 00:53 Clear 57 13.9 40 4.4 53 53 SSW 7 11 29.85 1011 10 16.0934 0 0
1:53 am 01:53 Clear 54 12.2 41 5 62 62 WSW 9 15 29.84 1011 8 12.87472 0 0
2:53 am 02:53 Clear 57 13.9 40 4.4 53 53 W 14 22 29.84 1011 10 16.0934 0 0
3:53 am 03:53 Clear 58 14.4 40 4.4 51 51 W 12 19 29.82 1010 10 16.0934 0 0
4:53 am 04:53 Clear 56 13.3 40 4.4 55 55 W 10 17 29.83 1010 10 16.0934 0 0
5:53 am 05:53 Clear 54 12.2 40 4.4 59 59 W 10 17 29.85 1011 10 16.0934 0 0
6:53 am 06:53 Clear 58 14.4 40 4.4 51 51 NNW 15 24 29.92 1013 10 16.0934 0 0
7:53 am 07:53 Sunny 59 15 41 5 51 51 NNW 13 20 29.98 1015 10 16.0934 0 0
8:53 am 08:53 Sunny 62 16.7 42 5.6 48 48 NNW 16 26 30.04 1017 10 16.0934 0 0
9:53 am 09:53 Sunny 64 17.8 40 4.4 41 41 N 22 35 30.08 1019 10 16.0934 0 0
10:53 am 10:53 Sunny 67 19.4 33 0.6 28 28 NNW 24 39 30.11 1020 10 16.0934 0 0
11:53 am 11:53 Sunny 68 20 29 -1.7 23 23 NNW 26 43 30.14 1021 10 16.0934 0 0
12:53 pm 12:53 Sunny 70 21.1 28 -2.2 21 21 N 31 50 30.14 1021 10 16.0934 0 0
1:53 pm 13:53 Sunny 70 21.1 28 -2.2 21 21 NNW 21 33 30.14 1021 10 16.0934 0 0
2:53 pm 14:53 Sunny 70 21.1 26 -3.3 19 19 NW 21 33 30.13 1020 10 16.0934 0 0
3:53 pm 15:53 Sunny 68 20 25 -3.9 20 20 NNW 23 37 30.13 1020 10 16.0934 0 0
4:53 pm 16:53 Sunny 69 20.6 23 -5 17 17 NW 24 39 30.13 1020 10 16.0934 0 0
5:53 pm 17:53 Sunny 69 20.6 25 -3.9 19 19 NNW 20 31 30.14 1021 10 16.0934 0 0
6:53 pm 18:53 Sunny 63 17.2 24 -4.4 23 23 NW 9 15 30.15 1021 10 16.0934 0 0
7:53 pm 19:53 Clear 54 12.2 27 -2.8 35 35 WNW 8 13 30.17 1022 10 16.0934 0 0
8:53 pm 20:53 Clear 50 10 27 -2.8 41 41 WNW 8 13 30.19 1022 10 16.0934 0 0
9:53 pm 21:53 Clear 48 8.9 27 -2.8 44 44 W 9 15 30.2 1023 10 16.0934 0 0
10:53 pm 22:53 Clear 45 7.2 27 -2.8 49 49 W 8 13 30.21 1023 10 16.0934 0 0
11:53 pm 23:53 Clear 45 7.2 28 -2.2 52 52 W 12 19 30.23 1024 10 16.0934 0 0

Powered by AerisWeather